DW5656 Weather Reports


time (UTC)temp
C
wind
direction
speed
KPH
gust
KPH
rain 1hr
cm
rain 24hr
cm
rain mn
cm
humidity
%
barometer
mb
20260503021720 17 0 0.0 0.0 0.00 0.00 0.00 83 1014.7
20260503020820 17 0 0.0 0.0 0.00 0.00 0.00 83 1014.9
20260503015920 17 0 0.0 0.0 0.00 0.00 0.00 83 1015.0
20260503015020 17 0 0.0 0.0 0.00 0.00 0.00 83 1015.2
20260503014120 17 219 1.6 8.0 0.00 0.00 0.00 82 1015.2
20260503013220 17 239 1.6 8.0 0.00 0.00 0.00 82 1015.3
20260503012320 17 217 0.0 8.0 0.00 0.00 0.00 81 1015.5
20260503011441 17 0 0.0 0.0 0.00 0.00 0.00 81 1015.5
20260503010520 17 0 0.0 0.0 0.00 0.00 0.00 80 1015.5
20260503005620 17 0 0.0 0.0 0.00 0.00 0.00 80 1015.8
20260503004720 17 0 0.0 0.0 0.00 0.00 0.00 80 1015.9
20260503003820 17 0 0.0 0.0 0.00 0.00 0.00 80 1016.0
20260503002920 17 0 0.0 0.0 0.00 0.00 0.00 79 1015.9
20260503002020 17 0 0.0 0.0 0.00 0.00 0.00 79 1016.0
20260503001141 17 0 0.0 0.0 0.00 0.00 0.00 79 1016.0
20260503000241 17 0 0.0 0.0 0.00 0.00 0.00 79 1016.2
20260502235320 17 0 0.0 0.0 0.00 0.00 0.00 78 1016.3
20260502234441 17 0 0.0 0.0 0.00 0.00 0.00 78 1016.2
20260502233520 17 0 0.0 0.0 0.00 0.00 0.00 77 1016.1
20260502232620 17 0 0.0 0.0 0.00 0.00 0.00 77 1016.3
20260502231720 17 0 0.0 0.0 0.00 0.00 0.00 77 1016.3
20260502230820 17 0 0.0 0.0 0.00 0.00 0.00 77 1016.4
20260502225920 17 0 0.0 0.0 0.00 0.00 0.00 77 1016.3
20260502225020 17 0 0.0 0.0 0.00 0.00 0.00 76 1016.3
20260502224119 17 0 0.0 0.0 0.00 0.00 0.00 76 1016.3
20260502223219 17 0 0.0 0.0 0.00 0.00 0.00 76 1016.2
20260502222341 17 0 0.0 0.0 0.00 0.00 0.00 77 1016.1
20260502221420 18 0 0.0 0.0 0.00 0.00 0.00 77 1016.1
20260502220520 18 0 0.0 0.0 0.00 0.00 0.00 77 1016.1
20260502215620 18 0 0.0 0.0 0.00 0.00 0.00 77 1016.2
20260502214720 18 228 0.0 4.8 0.00 0.00 0.00 76 1016.1
20260502213819 18 217 0.0 12.9 0.00 0.00 0.00 76 1016.1
20260502212919 18 237 0.0 3.2 0.00 0.00 0.00 76 1016.1
20260502212019 19 229 0.0 8.0 0.00 0.00 0.00 75 1016.0
20260502211119 19 218 0.0 1.6 0.00 0.00 0.00 75 1015.9
20260502210219 19 233 0.0 6.4 0.00 0.00 0.00 75 1015.8
20260502205319 19 213 0.0 4.8 0.00 0.00 0.00 75 1015.8
20260502204419 19 0 1.6 0.0 0.00 0.00 0.00 75 1015.6
20260502203519 20 242 1.6 12.9 0.00 0.00 0.00 74 1015.6
20260502202619 20 263 1.6 11.3 0.00 0.00 0.00 74 1015.5
20260502201719 20 254 1.6 9.7 0.00 0.00 0.00 74 1015.5
20260502200819 20 253 0.0 8.0 0.00 0.00 0.00 74 1015.3
20260502195919 20 243 1.6 11.3 0.00 0.00 0.00 74 1015.3
20260502195019 20 257 1.6 12.9 0.00 0.00 0.00 74 1015.3
20260502194120 20 245 3.2 12.9 0.00 0.00 0.00 74 1015.1
20260502193219 20 245 1.6 14.5 0.00 0.00 0.00 74 1015.0
20260502192319 20 248 1.6 14.5 0.00 0.00 0.00 73 1014.9
20260502191419 20 237 3.2 14.5 0.00 0.00 0.00 72 1014.9
20260502190519 21 240 3.2 16.1 0.00 0.00 0.00 72 1014.8
20260502185640 21 240 3.2 12.9 0.00 0.00 0.00 72 1014.8
20260502184719 21 245 4.8 17.7 0.00 0.00 0.00 72 1014.7
20260502183819 21 242 8.0 16.1 0.00 0.00 0.00 72 1014.9
20260502182919 21 242 6.4 19.3 0.00 0.00 0.00 71 1014.7
20260502182019 22 240 4.8 12.9 0.00 0.00 0.00 70 1014.8
20260502181140 22 239 4.8 14.5 0.00 0.00 0.00 70 1014.9
20260502180219 22 231 3.2 19.3 0.00 0.00 0.00 69 1014.9
20260502164119 22 258 8.0 19.3 0.00 0.00 0.00 70 1015.1
20260502163218 22 254 11.3 20.9 0.00 0.00 0.00 71 1015.2
20260502162319 22 264 9.7 22.5 0.00 0.00 0.00 70 1015.3
20260502161418 22 275 6.4 17.7 0.00 0.00 0.00 70 1015.2
20260502160519 22 302 3.2 16.1 0.00 0.00 0.00 69 1015.1
20260502152018 22 316 6.4 14.5 0.00 0.00 0.00 69 1015.6
20260502151118 22 279 6.4 17.7 0.00 0.00 0.00 70 1015.9
20260502150240 22 288 6.4 14.5 0.00 0.00 0.00 70 1015.8
20260502130540 23 237 3.2 6.4 0.00 0.00 0.00 61 1016.8
20260502122918 22 262 0.0 12.9 0.00 0.00 0.00 63 1017.2
20260502122018 22 306 0.0 1.6 0.00 0.00 0.00 63 1017.3
20260502121139 22 177 0.0 4.8 0.00 0.00 0.00 64 1017.4
20260502120218 22 271 0.0 11.3 0.00 0.00 0.00 63 1017.3
20260502115318 22 126 0.0 1.6 0.00 0.00 0.00 63 1017.3
20260502114439 22 109 0.0 1.6 0.00 0.00 0.00 63 1017.3
20260502113518 22 192 0.0 3.2 0.00 0.00 0.00 63 1017.4
20260502112618 22 259 0.0 3.2 0.00 0.00 0.00 63 1017.3
20260502111718 22 277 0.0 3.2 0.00 0.00 0.00 64 1017.4
20260502110818 22 275 0.0 3.2 0.00 0.00 0.00 64 1017.6
20260502105918 22 234 0.0 1.6 0.00 0.00 0.00 64 1017.7
20260502105018 22 129 0.0 4.8 0.00 0.00 0.00 64 1018.0
20260502104118 22 131 0.0 4.8 0.00 0.00 0.00 64 1018.0
20260502103218 21 0 0.0 0.0 0.00 0.00 0.00 66 1018.1
20260502102318 21 0 0.0 0.0 0.00 0.00 0.00 65 1018.1
20260502101417 21 0 0.0 0.0 0.00 0.00 0.00 67 1018.1
20260502100518 20 266 0.0 6.4 0.00 0.00 0.00 68 1018.4
20260502091138 20 0 0.0 0.0 0.00 0.00 0.00 67 1018.1
20260502090218 19 25 0.0 6.4 0.00 0.00 0.00 68 1018.1
20260502071417 17 0 0.0 0.0 0.00 0.00 0.00 72 1017.9
20260502070517 18 0 0.0 0.0 0.00 0.00 0.00 72 1017.8
20260502065617 18 0 0.0 0.0 0.00 0.00 0.00 72 1017.8
20260502064717 18 0 0.0 0.0 0.00 0.00 0.00 71 1017.7
20260502063817 17 0 0.0 0.0 0.00 0.00 0.00 71 1017.6
20260502062917 17 0 0.0 0.0 0.00 0.00 0.00 71 1017.8
20260502062017 17 0 0.0 0.0 0.00 0.00 0.00 71 1017.7
20260502061117 17 0 0.0 0.0 0.00 0.00 0.00 71 1017.6
20260502060217 17 0 0.0 0.0 0.00 0.00 0.00 72 1017.7
20260502055338 17 0 0.0 0.0 0.00 0.00 0.00 72 1017.4
20260502054417 17 0 0.0 0.0 0.00 0.00 0.00 72 1017.4
20260502053517 17 336 0.0 4.8 0.00 0.00 0.00 72 1017.4
20260502052617 18 0 0.0 0.0 0.00 0.00 0.00 71 1017.2
20260502051717 17 0 0.0 0.0 0.00 0.00 0.00 72 1017.1
20260502050838 17 0 0.0 0.0 0.00 0.00 0.00 71 1017.2
20260502045938 17 0 0.0 0.0 0.00 0.00 0.00 72 1017.2
20260502045016 17 0 0.0 0.0 0.00 0.00 0.00 72 1017.3
20260502044117 17 0 0.0 0.0 0.00 0.00 0.00 72 1017.3
20260502043216 17 337 0.0 3.2 0.00 0.00 0.00 72 1017.4
20260502042316 17 0 0.0 0.0 0.00 0.00 0.00 73 1017.4
20260502041438 17 0 0.0 0.0 0.00 0.00 0.00 73 1017.4
20260502040516 17 336 0.0 1.6 0.00 0.00 0.00 72 1017.3
20260502035616 17 0 0.0 0.0 0.00 0.00 0.00 72 1017.4
20260502034716 17 0 0.0 0.0 0.00 0.00 0.00 72 1017.5
20260502033816 17 313 0.0 4.8 0.00 0.00 0.00 71 1017.6
20260502032916 18 313 0.0 1.6 0.00 0.00 0.00 72 1017.6
20260502032037 18 0 0.0 0.0 0.00 0.00 0.00 71 1017.6
20260502031116 18 300 0.0 1.6 0.00 0.00 0.00 70 1017.5
20260502030216 18 300 0.0 3.2 0.00 0.00 0.00 70 1017.7
20260502025316 18 0 0.0 0.0 0.00 0.00 0.00 71 1017.6
20260502024416 18 0 0.0 0.0 0.00 0.00 0.00 70 1017.7
20260502023516 18 0 0.0 0.0 0.00 0.00 0.00 69 1017.6
20260502022616 18 300 0.0 1.6 0.00 0.00 0.00 68 1017.7